This demonstration page uses our WeatherBlox Daily Observations layout. Learn more.

41.55636, -103.73856

Hourly Observations for January 12, 2019

Temp ( °F °C ) Dew Point ( °F °C ) Humidity (%) Winds ( mph kmh ) Pressure ( in mb ) Visibility ( mi km ) Precip ( " mm )
12:53 am 00:53 Cloudy 34 1.1 33 0.6 97 97 WNW 7 11 30.18 1022 10 16.09344 0 0
1:53 am 01:53 Cloudy 33 0.6 32 0 96 96 WNW 6 9 30.21 1023 10 16.09344 0 0
2:53 am 02:53 Mostly Clear 29 -1.7 28 -2.2 96 96 WNW 6 9 30.24 1024 10 16.09344 0 0
3:53 am 03:53 Mostly Cloudy 26 -3.3 26 -3.3 100 100 NW 7 11 30.24 1024 10 16.09344 0 0
4:53 am 04:53 Clear 25 -3.9 25 -3.9 100 100 NNW 6 9 30.24 1024 10 16.09344 0 0
5:53 am 05:53 Clear 23 -5 23 -5 100 100 NNW 8 13 30.27 1025 10 16.09344 0 0
6:53 am 06:53 Clear 22 -5.6 22 -5.6 100 100 NW 8 13 30.27 1025 10 16.09344 0 0
7:53 am 07:53 Sunny 24 -4.4 23 -5 96 96 NW 8 13 30.27 1025 10 16.09344 0 0
8:53 am 08:53 Sunny 29 -1.7 27 -2.8 92 92 WNW 6 9 30.3 1026 10 16.09344 0 0
9:53 am 09:53 Sunny 33 0.6 30 -1.1 89 89 WNW 8 13 30.3 1026 10 16.09344 0 0
10:53 am 10:53 Sunny 36 2.2 31 -0.6 82 82 NW 12 19 30.27 1025 10 16.09344 0 0
11:53 am 11:53 Sunny 41 5 32 0 70 70 WNW 7 11 30.21 1023 10 16.09344 0 0
12:53 pm 12:53 Sunny 44 6.7 32 0 63 63 WNW 10 17 30.18 1022 10 16.09344 0 0
1:53 pm 13:53 Sunny 46 7.8 32 0 58 58 W 7 11 30.18 1022 10 16.09344 0 0
2:53 pm 14:53 Mostly Sunny 47 8.3 32 0 56 56 WNW 6 9 30.18 1022 10 16.09344 0 0
3:53 pm 15:53 Sunny 45 7.2 31 -0.6 58 58 W 7 11 30.21 1023 10 16.09344 0 0
4:53 pm 16:53 Clear 38 3.3 29 -1.7 70 70 Calm 30.24 1024 10 16.09344 0 0
5:53 pm 17:53 Clear 32 0 26 -3.3 79 79 E 5 7 30.27 1025 10 16.09344 0 0
6:53 pm 18:53 Clear 26 -3.3 24 -4.4 92 92 E 7 11 30.33 1027 10 16.09344 0 0
7:53 pm 19:53 Clear 26 -3.3 25 -3.9 96 96 E 9 15 30.33 1027 10 16.09344 0 0
8:53 pm 20:53 Clear 25 -3.9 24 -4.4 96 96 SE 5 7 30.33 1027 10 16.09344 0 0
9:53 pm 21:53 Clear 22 -5.6 21 -6.1 96 96 E 3 6 30.33 1027 10 16.09344 0 0
10:32 pm 22:32 Partly Cloudy with Mist and Fog 21 -6 21 -6 100 100 Calm 30.45 1031 6 9.656064 0 0
10:41 pm 22:41 Mostly Cloudy with Mist and Fog 22 -5.6 21 -6.1 96 96 Calm 30.45 1031 2.5 4.02336 0 0
10:53 pm 22:53 Cloudy with Mist and Fog 22 -5.6 22 -5.6 100 100 Calm 30.33 1027 1.5 2.414016 0 0
10:55 pm 22:55 Mostly Cloudy with Mist and Fog 22 -5.6 22 -5.6 100 100 E 3 6 30.45 1031 0.75 1.207008 0 0
11:06 pm 23:06 Mostly Cloudy with Freezing Fog 21 -6 21 -6 100 100 E 3 6 30.45 1031 0.25 0.402336 0 0
11:53 pm 23:53 Mostly Cloudy with Freezing Fog 20 -6.7 20 -6.7 100 100 ENE 3 6 30.3 1026 0.25 0.402336 0 0

Powered by AerisWeather